AO-07
1 07530U 74089B 26235.83660881 -.00000032 00000-0 92574-4 0 9998
2 07530 101.9921 249.7905 0012261 4.1018 170.8352 12.53699176368992


Ligne 0
Le nom commun de l'objetAO-07
Ligne 1
Numéro de catalogue satellite07530U
Désignateur international74089B
Année de lancement74
Numéro de lancement dans l'année089
Object du lancementB
Époque (année)26
Époque (Jour de l'année en UTC)235.83660881
1ère dérivée du mouvement moyen-.00000032
2ème dérivée du mouvement moyen 00000-0
B * Terme de glissement 92574-4
Type de jeu d'éléments0
Numéro d'élément 999
Ligne 2
Numéro de catalogue satellite07530
Inclinaison de l'orbite (degrés)101.9921
Ascension droite du nœud ascendant (degrés)249.7905
Excentricité0012261
Argument du Périgée (degrés) 4.1018
Anomalie moyenne (degrés)170.8352
Mouvement moyen (révolutions / jour)12.53699176
Numéro de révolution à l'époque36899
Valeurs déduites
Période Orbitale (en minutes)114.9 min.
Demi-grand axe (en kilomètres)7827.2 Km
Altitude à l‘Apogée (en kilomètres)1465.8 Km
Altitude au Périgée (en kilomètres)1446.6 Km

* Sources des TLE's : Celestrack